Torna al catalogo

EARTHCARE

AttivoScienzaSSO
NORAD 59908·PAYLOAD·🇺🇸 United States

Lanciato May 28, 2024 da Vandenberg Space Force Base

Loading…

Prossimi Passaggi (prossime 24 ore)

TLE

AggiornatoSource: Space-Track

Epoca: Sep 13, 2026, 20:56 UTC

1 59908U 24101A   26256.87245185  .00008858  00000-0  12379-3 0  9994
2 59908  97.0005  22.4628 0001691  88.5016 271.6434 15.57068745130361

Traccia EARTHCARE in tempo reale con AllMySat

Download on the App Store